Time,TemperatureF,DewpointF,PressureIn,WindDirection,WindDirectionDegrees,WindSpeedMPH,WindSpeedGustMPH,Humidity,HourlyPrecipIn,Conditions,Clouds,dailyrainin,SoftwareType,DateUTC
2013-02-26 00:01:00,34.7,33.2,30.42,SSE,165,0.0,2.0,94,0.00,,---,0.15,VWS V14.00,2013-02-26 08:01:00,
2013-02-26 00:06:00,34.6,33.0,30.42,SSE,165,0.0,0.0,94,0.00,,---,0.00,VWS V14.00,2013-02-26 08:06:00,
2013-02-26 00:11:00,34.5,33.2,30.42,SSE,165,0.0,0.0,95,0.00,,---,0.00,VWS V14.00,2013-02-26 08:11:00,
2013-02-26 00:16:00,34.6,33.3,30.41,SSE,165,0.0,0.0,95,0.00,,---,0.00,VWS V14.00,2013-02-26 08:16:00,
2013-02-26 00:21:00,34.8,33.8,30.41,SSE,165,0.0,0.0,96,0.00,,---,0.00,VWS V14.00,2013-02-26 08:21:00,
2013-02-26 00:26:00,35.0,34.0,30.42,SSE,165,0.0,0.0,96,0.00,,---,0.00,VWS V14.00,2013-02-26 08:26:00,
2013-02-26 00:31:00,35.4,34.4,30.42,SSE,165,0.0,0.0,96,0.00,,---,0.00,VWS V14.00,2013-02-26 08:31:00,
2013-02-26 00:36:00,35.6,34.6,30.41,SSE,165,0.0,0.0,96,0.00,,---,0.00,VWS V14.00,2013-02-26 08:36:00,
2013-02-26 00:41:00,35.6,34.6,30.41,SSE,165,0.0,0.0,96,0.00,,---,0.00,VWS V14.00,2013-02-26 08:41:00,
2013-02-26 00:46:00,35.8,34.8,30.41,SSE,165,0.0,0.0,96,0.00,,---,0.00,VWS V14.00,2013-02-26 08:46:00,
2013-02-26 00:51:00,35.8,34.8,30.41,SSE,165,0.0,0.0,96,0.00,,---,0.00,VWS V14.00,2013-02-26 08:51:00,
2013-02-26 00:56:00,35.5,34.5,30.41,SSE,165,0.0,0.0,96,0.00,,---,0.00,VWS V14.00,2013-02-26 08:56:00,
2013-02-26 01:01:00,35.4,34.4,30.41,SSE,165,0.0,0.0,96,0.00,,---,0.00,VWS V14.00,2013-02-26 09:01:00,
2013-02-26 01:06:00,35.6,34.6,30.41,SE,139,2.0,2.0,96,0.00,,---,0.00,VWS V14.00,2013-02-26 09:06:00,
2013-02-26 01:11:00,35.6,34.6,30.41,SE,139,0.0,2.0,96,0.00,,---,0.00,VWS V14.00,2013-02-26 09:11:00,
2013-02-26 01:16:00,35.6,34.6,30.40,SE,139,0.0,2.0,96,0.00,,---,0.00,VWS V14.00,2013-02-26 09:16:00,
2013-02-26 01:21:00,35.8,34.8,30.40,SE,139,0.0,2.0,96,0.00,,---,0.00,VWS V14.00,2013-02-26 09:21:00,
2013-02-26 01:27:00,36.1,35.3,30.40,SE,145,0.0,2.0,97,0.00,,---,0.00,VWS V14.00,2013-02-26 09:27:00,
2013-02-26 01:32:00,36.2,35.4,30.40,South,179,2.0,4.0,97,0.00,,---,0.00,VWS V14.00,2013-02-26 09:32:00,
2013-02-26 01:37:00,36.2,35.2,30.40,South,179,0.0,2.0,96,0.00,,---,0.00,VWS V14.00,2013-02-26 09:37:00,
2013-02-26 01:42:00,36.1,35.1,30.40,South,179,0.0,2.0,96,0.00,,---,0.00,VWS V14.00,2013-02-26 09:42:00,
2013-02-26 01:47:00,36.0,35.0,30.40,South,179,0.0,2.0,96,0.00,,---,0.00,VWS V14.00,2013-02-26 09:47:00,
2013-02-26 01:52:00,35.9,34.9,30.40,South,179,0.0,2.0,96,0.00,,---,0.00,VWS V14.00,2013-02-26 09:52:00,
2013-02-26 01:57:00,35.9,34.9,30.40,South,179,0.0,2.0,96,0.00,,---,0.00,VWS V14.00,2013-02-26 09:57:00,
2013-02-26 02:02:00,35.9,34.9,30.40,South,179,0.0,2.0,96,0.00,,---,0.00,VWS V14.00,2013-02-26 10:02:00,
2013-02-26 02:07:00,36.1,35.1,30.40,South,179,0.0,0.0,96,0.00,,---,0.00,VWS V14.00,2013-02-26 10:07:00,
2013-02-26 02:12:00,36.1,35.1,30.40,South,179,0.0,0.0,96,0.00,,---,0.00,VWS V14.00,2013-02-26 10:12:00,
2013-02-26 02:17:00,36.2,35.2,30.40,South,179,0.0,0.0,96,0.00,,---,0.00,VWS V14.00,2013-02-26 10:17:00,
2013-02-26 02:22:00,36.2,35.2,30.40,South,179,0.0,0.0,96,0.00,,---,0.00,VWS V14.00,2013-02-26 10:22:00,
2013-02-26 02:27:00,36.1,35.1,30.40,South,179,0.0,0.0,96,0.00,,---,0.00,VWS V14.00,2013-02-26 10:27:00,
2013-02-26 02:32:00,36.2,35.2,30.40,South,179,0.0,0.0,96,0.00,,---,0.00,VWS V14.00,2013-02-26 10:32:00,
2013-02-26 02:37:00,36.2,35.2,30.40,South,179,0.0,0.0,96,0.00,,---,0.00,VWS V14.00,2013-02-26 10:37:00,
2013-02-26 02:42:00,36.1,35.1,30.40,South,179,0.0,1.0,96,0.00,,---,0.00,VWS V14.00,2013-02-26 10:42:00,
2013-02-26 02:47:00,36.0,34.7,30.40,South,179,0.0,1.0,95,0.00,,---,0.00,VWS V14.00,2013-02-26 10:47:00,
2013-02-26 02:52:00,35.8,34.5,30.40,South,179,0.0,1.0,95,0.00,,---,0.00,VWS V14.00,2013-02-26 10:52:00,
2013-02-26 02:57:00,35.6,34.3,30.39,South,179,0.0,1.0,95,0.00,,---,0.00,VWS V14.00,2013-02-26 10:57:00,
2013-02-26 03:02:00,35.5,34.2,30.40,South,179,0.0,0.0,95,0.00,,---,0.00,VWS V14.00,2013-02-26 11:02:00,
2013-02-26 03:07:00,35.3,34.0,30.40,South,179,0.0,0.0,95,0.00,,---,0.00,VWS V14.00,2013-02-26 11:07:00,
2013-02-26 03:12:00,35.3,34.0,30.40,South,179,0.0,0.0,95,0.00,,---,0.00,VWS V14.00,2013-02-26 11:12:00,
2013-02-26 03:17:00,35.3,34.0,30.40,South,179,0.0,0.0,95,0.00,,---,0.00,VWS V14.00,2013-02-26 11:17:00,
2013-02-26 03:22:00,35.2,33.9,30.40,South,179,0.0,0.0,95,0.00,,---,0.00,VWS V14.00,2013-02-26 11:22:00,
2013-02-26 03:27:00,35.1,33.8,30.40,South,179,0.0,0.0,95,0.00,,---,0.00,VWS V14.00,2013-02-26 11:27:00,
2013-02-26 03:32:00,35.0,33.7,30.40,South,179,0.0,0.0,95,0.00,,---,0.00,VWS V14.00,2013-02-26 11:32:00,
2013-02-26 03:37:00,35.0,34.0,30.40,South,179,0.0,0.0,96,0.00,,---,0.00,VWS V14.00,2013-02-26 11:37:00,
2013-02-26 03:42:00,35.1,34.1,30.40,South,179,0.0,0.0,96,0.00,,---,0.00,VWS V14.00,2013-02-26 11:42:00,
2013-02-26 03:47:00,35.2,34.2,30.40,South,179,0.0,0.0,96,0.00,,---,0.00,VWS V14.00,2013-02-26 11:47:00,
2013-02-26 03:52:00,35.1,34.1,30.40,South,179,0.0,0.0,96,0.00,,---,0.00,VWS V14.00,2013-02-26 11:52:00,
2013-02-26 03:57:00,35.1,34.1,30.40,South,179,0.0,0.0,96,0.00,,---,0.00,VWS V14.00,2013-02-26 11:57:00,
2013-02-26 04:02:00,35.0,34.0,30.40,South,179,0.0,0.0,96,0.00,,---,0.00,VWS V14.00,2013-02-26 12:02:00,
2013-02-26 04:07:00,34.9,33.9,30.40,South,179,0.0,0.0,96,0.00,,---,0.00,VWS V14.00,2013-02-26 12:07:00,
2013-02-26 04:12:00,34.9,33.9,30.40,South,179,0.0,0.0,96,0.00,,---,0.00,VWS V14.00,2013-02-26 12:12:00,
2013-02-26 04:17:00,35.0,34.0,30.40,South,179,0.0,0.0,96,0.00,,---,0.00,VWS V14.00,2013-02-26 12:17:00,
2013-02-26 04:22:00,35.0,34.0,30.40,South,179,0.0,0.0,96,0.00,,---,0.00,VWS V14.00,2013-02-26 12:22:00,
2013-02-26 04:27:00,35.4,34.6,30.40,South,179,0.0,0.0,97,0.00,,---,0.00,VWS V14.00,2013-02-26 12:27:00,
2013-02-26 04:32:00,35.8,35.0,30.40,South,179,0.0,0.0,97,0.00,,---,0.00,VWS V14.00,2013-02-26 12:32:00,
2013-02-26 04:37:00,36.0,35.2,30.40,South,179,0.0,1.0,97,0.00,,---,0.00,VWS V14.00,2013-02-26 12:37:00,
2013-02-26 04:42:00,35.9,35.1,30.39,South,179,1.0,1.0,97,0.00,,---,0.00,VWS V14.00,2013-02-26 12:42:00,
2013-02-26 04:47:00,35.7,34.7,30.40,South,179,0.0,1.0,96,0.00,,---,0.00,VWS V14.00,2013-02-26 12:47:00,
2013-02-26 04:52:00,35.4,34.4,30.40,South,179,0.0,2.0,96,0.00,,---,0.00,VWS V14.00,2013-02-26 12:52:00,
2013-02-26 04:57:00,35.2,34.2,30.40,South,179,0.0,2.0,96,0.00,,---,0.00,VWS V14.00,2013-02-26 12:57:00,
2013-02-26 05:02:00,35.2,34.2,30.40,South,179,1.0,1.0,96,0.00,,---,0.00,VWS V14.00,2013-02-26 13:02:00,
2013-02-26 05:07:00,35.1,34.1,30.39,South,177,0.0,1.0,96,0.00,,---,0.00,VWS V14.00,2013-02-26 13:07:00,
2013-02-26 05:12:00,35.0,34.0,30.40,South,177,0.0,1.0,96,0.00,,---,0.00,VWS V14.00,2013-02-26 13:12:00,
2013-02-26 05:17:00,34.9,33.6,30.40,South,177,0.0,1.0,95,0.00,,---,0.00,VWS V14.00,2013-02-26 13:17:00,
2013-02-26 05:23:00,34.8,33.8,30.40,South,177,0.0,1.0,96,0.00,,---,0.00,VWS V14.00,2013-02-26 13:23:00,
2013-02-26 05:28:00,34.8,33.8,30.40,South,177,0.0,1.0,96,0.00,,---,0.00,VWS V14.00,2013-02-26 13:28:00,
2013-02-26 05:33:00,34.9,33.9,30.40,South,177,0.0,0.0,96,0.00,,---,0.00,VWS V14.00,2013-02-26 13:33:00,
2013-02-26 05:38:00,34.9,33.9,30.40,South,177,0.0,0.0,96,0.00,,---,0.00,VWS V14.00,2013-02-26 13:38:00,
2013-02-26 05:43:00,34.8,33.8,30.40,South,177,0.0,0.0,96,0.00,,---,0.00,VWS V14.00,2013-02-26 13:43:00,
2013-02-26 05:48:00,34.6,33.6,30.40,South,177,0.0,0.0,96,0.00,,---,0.00,VWS V14.00,2013-02-26 13:48:00,
2013-02-26 05:53:00,34.5,33.5,30.40,South,177,0.0,0.0,96,0.00,,---,0.00,VWS V14.00,2013-02-26 13:53:00,
2013-02-26 05:58:00,34.4,33.4,30.40,South,177,0.0,0.0,96,0.00,,---,0.00,VWS V14.00,2013-02-26 13:58:00,
2013-02-26 06:03:00,34.3,33.3,30.40,South,177,0.0,0.0,96,0.00,,---,0.00,VWS V14.00,2013-02-26 14:03:00,
2013-02-26 06:08:00,34.1,33.1,30.40,South,177,0.0,0.0,96,0.00,,---,0.00,VWS V14.00,2013-02-26 14:08:00,
2013-02-26 06:13:00,34.0,33.0,30.40,South,177,0.0,0.0,96,0.00,,---,0.00,VWS V14.00,2013-02-26 14:13:00,
2013-02-26 06:18:00,33.8,32.8,30.40,South,177,0.0,0.0,96,0.00,,---,0.00,VWS V14.00,2013-02-26 14:18:00,
2013-02-26 06:23:00,33.7,32.7,30.40,South,177,0.0,0.0,96,0.00,,---,0.00,VWS V14.00,2013-02-26 14:23:00,
2013-02-26 06:28:00,33.7,32.7,30.40,South,177,0.0,0.0,96,0.00,,---,0.00,VWS V14.00,2013-02-26 14:28:00,
2013-02-26 06:33:00,33.7,32.7,30.40,South,177,0.0,0.0,96,0.00,,---,0.00,VWS V14.00,2013-02-26 14:33:00,
2013-02-26 06:38:00,33.7,32.7,30.40,South,177,0.0,0.0,96,0.00,,---,0.00,VWS V14.00,2013-02-26 14:38:00,
2013-02-26 06:43:00,33.8,32.8,30.40,South,177,0.0,0.0,96,0.00,,---,0.00,VWS V14.00,2013-02-26 14:43:00,
2013-02-26 06:48:00,34.0,33.0,30.40,South,177,0.0,0.0,96,0.00,,---,0.00,VWS V14.00,2013-02-26 14:48:00,
2013-02-26 06:53:00,34.2,33.4,30.40,South,177,0.0,0.0,97,0.00,,---,0.00,VWS V14.00,2013-02-26 14:53:00,
2013-02-26 06:58:00,34.3,33.5,30.40,South,177,0.0,0.0,97,0.00,,---,0.00,VWS V14.00,2013-02-26 14:58:00,
2013-02-26 07:03:00,34.4,33.6,30.39,South,177,0.0,0.0,97,0.00,,---,0.00,VWS V14.00,2013-02-26 15:03:00,
2013-02-26 07:08:00,34.5,33.7,30.40,South,177,0.0,0.0,97,0.00,,---,0.00,VWS V14.00,2013-02-26 15:08:00,
2013-02-26 07:13:00,34.7,33.9,30.39,South,177,1.0,1.0,97,0.00,,---,0.00,VWS V14.00,2013-02-26 15:13:00,
2013-02-26 07:18:00,34.8,33.8,30.40,South,177,0.0,1.0,96,0.00,,---,0.00,VWS V14.00,2013-02-26 15:18:00,
2013-02-26 07:23:00,34.9,33.9,30.40,South,177,0.0,1.0,96,0.00,,---,0.00,VWS V14.00,2013-02-26 15:23:00,
2013-02-26 07:28:00,34.8,33.8,30.39,South,177,0.0,1.0,96,0.00,,---,0.00,VWS V14.00,2013-02-26 15:28:00,
2013-02-26 07:33:00,34.9,33.9,30.39,SSE,165,1.0,2.0,96,0.00,,---,0.00,VWS V14.00,2013-02-26 15:33:00,
2013-02-26 07:38:00,34.9,33.9,30.39,SSE,158,0.0,2.0,96,0.00,,---,0.00,VWS V14.00,2013-02-26 15:38:00,
2013-02-26 07:43:00,35.1,34.1,30.39,SSE,158,0.0,2.0,96,0.00,,---,0.00,VWS V14.00,2013-02-26 15:43:00,
2013-02-26 07:48:00,35.2,34.2,30.38,SSE,158,0.0,2.0,96,0.00,,---,0.00,VWS V14.00,2013-02-26 15:48:00,
2013-02-26 07:53:00,35.3,34.3,30.38,SSE,158,0.0,2.0,96,0.00,,---,0.00,VWS V14.00,2013-02-26 15:53:00,
2013-02-26 07:58:00,35.4,34.4,30.38,SSE,158,0.0,2.0,96,0.00,,---,0.00,VWS V14.00,2013-02-26 15:58:00,
2013-02-26 08:03:00,35.5,34.5,30.38,SSE,158,0.0,0.0,96,0.00,,---,0.00,VWS V14.00,2013-02-26 16:03:00,
2013-02-26 08:08:00,35.7,34.7,30.38,SSE,158,0.0,0.0,96,0.00,,---,0.00,VWS V14.00,2013-02-26 16:08:00,
2013-02-26 08:13:00,35.9,34.9,30.38,SSE,158,0.0,0.0,96,0.00,,---,0.00,VWS V14.00,2013-02-26 16:13:00,
2013-02-26 08:18:00,36.1,35.1,30.38,SSE,158,0.0,0.0,96,0.00,,---,0.00,VWS V14.00,2013-02-26 16:18:00,
2013-02-26 08:23:00,36.3,35.3,30.38,West,272,0.0,1.0,96,0.00,,---,0.00,VWS V14.00,2013-02-26 16:23:00,
2013-02-26 08:28:00,36.7,35.7,30.38,NW,304,0.0,1.0,96,0.00,,---,0.00,VWS V14.00,2013-02-26 16:28:00,
2013-02-26 08:33:00,37.0,35.7,30.38,WSW,241,2.0,2.0,95,0.00,,---,0.00,VWS V14.00,2013-02-26 16:33:00,
2013-02-26 08:38:00,37.4,35.8,30.38,SW,223,1.0,2.0,94,0.00,,---,0.00,VWS V14.00,2013-02-26 16:38:00,
2013-02-26 08:43:00,37.8,36.0,30.38,SSW,200,1.0,4.0,93,0.00,,---,0.00,VWS V14.00,2013-02-26 16:43:00,
2013-02-26 08:48:00,38.3,35.6,30.38,South,182,2.0,5.0,90,0.00,,---,0.00,VWS V14.00,2013-02-26 16:48:00,
2013-02-26 08:53:00,38.8,35.8,30.38,SSE,153,2.0,6.0,89,0.00,,---,0.00,VWS V14.00,2013-02-26 16:53:00,
2013-02-26 08:58:00,39.2,36.2,30.38,South,191,2.0,6.0,89,0.00,,---,0.00,VWS V14.00,2013-02-26 16:58:00,
2013-02-26 09:03:00,39.5,36.0,30.37,South,186,0.0,4.0,87,0.00,,---,0.00,VWS V14.00,2013-02-26 17:03:00,
2013-02-26 09:08:00,39.8,36.2,30.37,South,179,2.0,4.0,87,0.00,,---,0.00,VWS V14.00,2013-02-26 17:08:00,
2013-02-26 09:13:00,40.1,36.0,30.37,South,173,4.0,7.0,85,0.00,,---,0.00,VWS V14.00,2013-02-26 17:13:00,
2013-02-26 09:18:00,40.4,36.3,30.37,South,180,2.0,7.0,85,0.00,,---,0.00,VWS V14.00,2013-02-26 17:18:00,
2013-02-26 09:23:00,40.9,36.5,30.37,SE,144,2.0,7.0,84,0.00,,---,0.00,VWS V14.00,2013-02-26 17:23:00,
2013-02-26 09:28:00,41.2,36.1,30.37,South,171,2.0,7.0,82,0.00,,---,0.00,VWS V14.00,2013-02-26 17:28:00,
2013-02-26 09:33:00,41.4,36.3,30.37,South,178,0.0,2.0,82,0.00,,---,0.00,VWS V14.00,2013-02-26 17:33:00,
2013-02-26 09:38:00,41.6,35.9,30.37,South,176,1.0,6.0,80,0.00,,---,0.00,VWS V14.00,2013-02-26 17:38:00,
2013-02-26 09:43:00,41.7,35.7,30.37,South,186,4.0,6.0,79,0.00,,---,0.00,VWS V14.00,2013-02-26 17:43:00,
2013-02-26 09:48:00,41.8,35.8,30.36,South,171,2.0,6.0,79,0.00,,---,0.00,VWS V14.00,2013-02-26 17:48:00,
2013-02-26 09:53:00,41.9,35.9,30.36,SSW,192,2.0,6.0,79,0.00,,---,0.00,VWS V14.00,2013-02-26 17:53:00,
2013-02-26 09:58:00,42.0,35.7,30.36,SSW,196,2.0,6.0,78,0.00,,---,0.00,VWS V14.00,2013-02-26 17:58:00,
2013-02-26 10:03:00,42.2,36.2,30.36,SSE,159,1.0,1.0,79,0.00,,---,0.00,VWS V14.00,2013-02-26 18:03:00,
2013-02-26 10:08:00,42.4,36.0,30.36,SSW,207,0.0,4.0,78,0.00,,---,0.00,VWS V14.00,2013-02-26 18:08:00,
2013-02-26 10:14:00,42.5,36.1,30.36,SSE,150,1.0,4.0,78,0.00,,---,0.00,VWS V14.00,2013-02-26 18:14:00,
2013-02-26 10:19:00,42.7,36.3,30.36,SSE,150,0.0,4.0,78,0.00,,---,0.00,VWS V14.00,2013-02-26 18:19:00,
2013-02-26 10:24:00,42.9,36.5,30.35,SSE,150,0.0,4.0,78,0.00,,---,0.00,VWS V14.00,2013-02-26 18:24:00,
2013-02-26 10:29:00,43.2,36.8,30.35,SSE,150,1.0,4.0,78,0.00,,---,0.00,VWS V14.00,2013-02-26 18:29:00,
2013-02-26 10:34:00,43.4,37.3,30.35,SE,139,2.0,2.0,79,0.00,,---,0.00,VWS V14.00,2013-02-26 18:34:00,
2013-02-26 10:39:00,43.7,38.3,30.35,SSW,213,2.0,2.0,81,0.00,,---,0.00,VWS V14.00,2013-02-26 18:39:00,
2013-02-26 10:44:00,43.8,38.0,30.34,SSW,195,0.0,2.0,80,0.00,,---,0.00,VWS V14.00,2013-02-26 18:44:00,
2013-02-26 10:49:00,44.1,36.4,30.34,South,182,3.0,4.0,74,0.00,,---,0.00,VWS V14.00,2013-02-26 18:49:00,
2013-02-26 10:54:00,44.1,37.0,30.34,SSW,207,0.0,4.0,76,0.00,,---,0.00,VWS V14.00,2013-02-26 18:54:00,
2013-02-26 10:59:00,44.5,36.7,30.34,WSW,253,0.0,4.0,74,0.00,,---,0.00,VWS V14.00,2013-02-26 18:59:00,
2013-02-26 11:04:00,44.8,36.0,30.34,SSW,198,0.0,3.0,71,0.00,,---,0.00,VWS V14.00,2013-02-26 19:04:00,
2013-02-26 11:09:00,44.9,35.7,30.35,WSW,257,2.0,5.0,70,0.00,,---,0.00,VWS V14.00,2013-02-26 19:09:00,
2013-02-26 11:14:00,44.9,36.4,30.35,SSW,198,4.0,6.0,72,0.00,,---,0.00,VWS V14.00,2013-02-26 19:14:00,
2013-02-26 11:19:00,44.8,36.3,30.35,SSW,211,2.0,6.0,72,0.00,,---,0.00,VWS V14.00,2013-02-26 19:19:00,
2013-02-26 11:24:00,44.6,36.5,30.35,SW,231,2.0,6.0,73,0.00,,---,0.00,VWS V14.00,2013-02-26 19:24:00,
2013-02-26 11:29:00,44.7,36.9,30.35,SSW,205,3.0,6.0,74,0.00,,---,0.00,VWS V14.00,2013-02-26 19:29:00,
2013-02-26 11:34:00,44.9,36.8,30.35,SSW,202,4.0,6.0,73,0.00,,---,0.00,VWS V14.00,2013-02-26 19:34:00,
2013-02-26 11:39:00,45.1,37.3,30.35,NNW,328,0.0,6.0,74,0.00,,---,0.00,VWS V14.00,2013-02-26 19:39:00,
2013-02-26 11:44:00,45.6,36.8,30.35,NE,50,1.0,6.0,71,0.00,,---,0.00,VWS V14.00,2013-02-26 19:44:00,
2013-02-26 11:49:00,45.9,36.3,30.35,West,267,2.0,6.0,69,0.00,,---,0.00,VWS V14.00,2013-02-26 19:49:00,
2013-02-26 11:54:00,45.9,35.2,30.35,NE,56,1.0,6.0,66,0.00,,---,0.00,VWS V14.00,2013-02-26 19:54:00,
2013-02-26 11:59:00,46.1,35.4,30.35,East,87,0.0,6.0,66,0.00,,---,0.00,VWS V14.00,2013-02-26 19:59:00,
2013-02-26 12:04:00,46.3,35.2,30.35,East,88,0.0,1.0,65,0.00,,---,0.00,VWS V14.00,2013-02-26 20:04:00,
2013-02-26 12:09:00,46.6,35.5,30.35,SSW,200,0.0,4.0,65,0.00,,---,0.00,VWS V14.00,2013-02-26 20:09:00,
2013-02-26 12:14:00,46.8,36.0,30.35,SW,236,1.0,4.0,66,0.00,,---,0.00,VWS V14.00,2013-02-26 20:14:00,
2013-02-26 12:19:00,46.9,34.2,30.35,SW,219,0.0,6.0,61,0.00,,---,0.00,VWS V14.00,2013-02-26 20:19:00,
2013-02-26 12:24:00,46.9,35.0,30.34,SSE,167,5.0,6.0,63,0.00,,---,0.00,VWS V14.00,2013-02-26 20:24:00,
2013-02-26 12:29:00,46.6,34.3,30.34,SE,139,1.0,6.0,62,0.00,,---,0.00,VWS V14.00,2013-02-26 20:29:00,
2013-02-26 12:34:00,46.8,35.7,30.34,South,184,6.0,7.0,65,0.00,,---,0.00,VWS V14.00,2013-02-26 20:34:00,
2013-02-26 12:39:00,46.7,34.8,30.33,South,186,1.0,7.0,63,0.00,,---,0.00,VWS V14.00,2013-02-26 20:39:00,
2013-02-26 12:44:00,46.8,34.9,30.33,SW,217,2.0,8.0,63,0.00,,---,0.00,VWS V14.00,2013-02-26 20:44:00,
2013-02-26 12:49:00,46.7,34.4,30.33,SSW,200,0.0,8.0,62,0.00,,---,0.00,VWS V14.00,2013-02-26 20:49:00,
2013-02-26 12:54:00,46.8,34.9,30.34,SSW,202,5.0,8.0,63,0.00,,---,0.00,VWS V14.00,2013-02-26 20:54:00,
2013-02-26 12:59:00,46.8,34.5,30.34,South,177,1.0,8.0,62,0.00,,---,0.00,VWS V14.00,2013-02-26 20:59:00,
2013-02-26 13:04:00,46.7,34.4,30.34,South,172,0.0,6.0,62,0.00,,---,0.00,VWS V14.00,2013-02-26 21:04:00,
2013-02-26 13:09:00,46.6,35.1,30.34,SE,142,1.0,6.0,64,0.00,,---,0.00,VWS V14.00,2013-02-26 21:09:00,
2013-02-26 13:14:00,46.9,35.8,30.33,South,189,1.0,6.0,65,0.00,,---,0.00,VWS V14.00,2013-02-26 21:14:00,
2013-02-26 13:19:00,47.0,35.1,30.33,SE,144,1.0,6.0,63,0.00,,---,0.00,VWS V14.00,2013-02-26 21:19:00,
2013-02-26 13:24:00,46.9,35.0,30.33,SSW,206,0.0,6.0,63,0.00,,---,0.00,VWS V14.00,2013-02-26 21:24:00,
2013-02-26 13:29:00,47.0,34.7,30.32,SW,219,0.0,6.0,62,0.00,,---,0.00,VWS V14.00,2013-02-26 21:29:00,
2013-02-26 13:34:00,47.1,34.8,30.32,NW,315,2.0,2.0,62,0.00,,---,0.00,VWS V14.00,2013-02-26 21:34:00,
2013-02-26 13:39:00,47.3,35.0,30.32,SSW,205,0.0,2.0,62,0.00,,---,0.00,VWS V14.00,2013-02-26 21:39:00,
2013-02-26 13:44:00,47.4,34.2,30.31,SSE,165,1.0,4.0,60,0.00,,---,0.00,VWS V14.00,2013-02-26 21:44:00,
2013-02-26 13:49:00,47.3,35.0,30.31,SSE,157,1.0,4.0,62,0.00,,---,0.00,VWS V14.00,2013-02-26 21:49:00,
2013-02-26 13:55:00,47.3,35.4,30.30,South,182,2.0,6.0,63,0.00,,---,0.00,VWS V14.00,2013-02-26 21:55:00,
2013-02-26 14:00:00,47.4,35.8,30.30,SE,145,4.0,6.0,64,0.00,,---,0.00,VWS V14.00,2013-02-26 22:00:00,
2013-02-26 14:05:00,47.4,35.5,30.29,South,185,3.0,3.0,63,0.00,,---,0.00,VWS V14.00,2013-02-26 22:05:00,
2013-02-26 14:10:00,47.4,33.8,30.28,SE,141,1.0,6.0,59,0.00,,---,0.00,VWS V14.00,2013-02-26 22:10:00,
2013-02-26 14:15:00,47.6,35.2,30.28,South,170,2.0,7.0,62,0.00,,---,0.00,VWS V14.00,2013-02-26 22:15:00,
2013-02-26 14:20:00,47.6,34.4,30.29,SSE,148,2.0,7.0,60,0.00,,---,0.00,VWS V14.00,2013-02-26 22:20:00,
2013-02-26 14:25:00,47.8,34.6,30.28,SSE,168,1.0,7.0,60,0.00,,---,0.00,VWS V14.00,2013-02-26 22:25:00,
2013-02-26 14:30:00,48.2,34.6,30.28,South,170,2.0,7.0,59,0.00,,---,0.00,VWS V14.00,2013-02-26 22:30:00,
2013-02-26 14:35:00,48.7,34.6,30.28,South,173,4.0,7.0,58,0.00,,---,0.00,VWS V14.00,2013-02-26 22:35:00,
2013-02-26 14:40:00,48.8,34.7,30.27,SSE,163,2.0,7.0,58,0.00,,---,0.00,VWS V14.00,2013-02-26 22:40:00,
2013-02-26 14:45:00,49.1,36.2,30.27,SSW,193,5.0,7.0,61,0.00,,---,0.00,VWS V14.00,2013-02-26 22:45:00,
2013-02-26 14:50:00,49.2,35.5,30.27,SSW,201,5.0,7.0,59,0.00,,---,0.00,VWS V14.00,2013-02-26 22:50:00,
2013-02-26 14:55:00,49.1,35.4,30.27,SSW,203,2.0,7.0,59,0.00,,---,0.00,VWS V14.00,2013-02-26 22:55:00,
2013-02-26 15:00:00,49.1,35.4,30.27,South,169,2.0,7.0,59,0.00,,---,0.00,VWS V14.00,2013-02-26 23:00:00,
2013-02-26 15:05:00,49.2,35.9,30.27,South,188,3.0,4.0,60,0.00,,---,0.00,VWS V14.00,2013-02-26 23:05:00,
2013-02-26 15:10:00,49.5,35.8,30.27,SSE,163,4.0,6.0,59,0.00,,---,0.00,VWS V14.00,2013-02-26 23:10:00,
2013-02-26 15:15:00,49.7,36.4,30.27,South,172,2.0,6.0,60,0.00,,---,0.00,VWS V14.00,2013-02-26 23:15:00,
2013-02-26 15:20:00,49.7,35.1,30.27,South,187,6.0,7.0,57,0.00,,---,0.00,VWS V14.00,2013-02-26 23:20:00,
2013-02-26 15:25:00,49.7,35.1,30.27,South,181,3.0,7.0,57,0.00,,---,0.00,VWS V14.00,2013-02-26 23:25:00,
2013-02-26 15:30:00,50.0,35.8,30.27,SSW,198,6.0,10.0,58,0.00,,---,0.00,VWS V14.00,2013-02-26 23:30:00,
2013-02-26 15:35:00,50.6,36.8,30.27,South,171,2.0,6.0,59,0.00,,---,0.00,VWS V14.00,2013-02-26 23:35:00,
2013-02-26 15:40:00,50.7,37.3,30.27,South,173,4.0,7.0,60,0.00,,---,0.00,VWS V14.00,2013-02-26 23:40:00,
2013-02-26 15:45:00,50.8,36.6,30.27,South,177,4.0,7.0,58,0.00,,---,0.00,VWS V14.00,2013-02-26 23:45:00,
2013-02-26 15:50:00,50.6,36.4,30.27,SSE,167,4.0,7.0,58,0.00,,---,0.00,VWS V14.00,2013-02-26 23:50:00,
2013-02-26 15:55:00,50.4,36.6,30.27,SE,144,2.0,7.0,59,0.00,,---,0.00,VWS V14.00,2013-02-26 23:55:00,
2013-02-26 16:00:00,50.3,36.5,30.27,SW,215,4.0,7.0,59,0.00,,---,0.00,VWS V14.00,2013-02-27 00:00:00,
2013-02-26 16:05:00,50.2,36.0,30.26,South,185,1.0,4.0,58,0.00,,---,0.00,VWS V14.00,2013-02-27 00:05:00,
2013-02-26 16:10:00,50.1,36.8,30.27,South,184,2.0,4.0,60,0.00,,---,0.00,VWS V14.00,2013-02-27 00:10:00,
2013-02-26 16:15:00,50.0,36.2,30.26,SE,130,2.0,4.0,59,0.00,,---,0.00,VWS V14.00,2013-02-27 00:15:00,
2013-02-26 16:20:00,49.9,37.0,30.26,SSW,211,3.0,4.0,61,0.00,,---,0.00,VWS V14.00,2013-02-27 00:20:00,
2013-02-26 16:25:00,49.9,37.4,30.27,SSW,202,4.0,4.0,62,0.00,,---,0.00,VWS V14.00,2013-02-27 00:25:00,
2013-02-26 16:30:00,49.8,38.1,30.27,SSW,207,2.0,5.0,64,0.00,,---,0.00,VWS V14.00,2013-02-27 00:30:00,
2013-02-26 16:35:00,49.6,38.7,30.27,SSW,204,2.0,3.0,66,0.00,,---,0.00,VWS V14.00,2013-02-27 00:35:00,
2013-02-26 16:41:00,49.4,38.9,30.27,SSW,194,2.0,3.0,67,0.00,,---,0.00,VWS V14.00,2013-02-27 00:41:00,
2013-02-26 16:46:00,49.1,38.6,30.27,SSW,202,1.0,5.0,67,0.00,,---,0.00,VWS V14.00,2013-02-27 00:46:00,
2013-02-26 16:51:00,48.9,39.2,30.27,WSW,237,1.0,5.0,69,0.00,,---,0.00,VWS V14.00,2013-02-27 00:51:00,
2013-02-26 16:56:00,48.6,39.3,30.27,SSW,209,1.0,5.0,70,0.00,,---,0.00,VWS V14.00,2013-02-27 00:56:00,
2013-02-26 17:01:00,48.3,39.3,30.27,South,177,0.0,5.0,71,0.00,,---,0.00,VWS V14.00,2013-02-27 01:01:00,
2013-02-26 17:06:00,48.1,39.9,30.27,South,177,0.0,0.0,73,0.00,,---,0.00,VWS V14.00,2013-02-27 01:06:00,
2013-02-26 17:11:00,48.0,40.1,30.27,South,177,0.0,0.0,74,0.00,,---,0.00,VWS V14.00,2013-02-27 01:11:00,
2013-02-26 17:16:00,47.9,40.0,30.27,South,177,0.0,0.0,74,0.00,,---,0.00,VWS V14.00,2013-02-27 01:16:00,
2013-02-26 17:21:00,47.8,39.6,30.28,South,177,0.0,0.0,73,0.00,,---,0.00,VWS V14.00,2013-02-27 01:21:00,
2013-02-26 17:26:00,47.6,39.7,30.28,South,177,0.0,0.0,74,0.00,,---,0.00,VWS V14.00,2013-02-27 01:26:00,
2013-02-26 17:31:00,47.4,39.5,30.28,South,177,0.0,0.0,74,0.00,,---,0.00,VWS V14.00,2013-02-27 01:31:00,
2013-02-26 17:36:00,47.3,39.8,30.28,South,177,0.0,0.0,75,0.00,,---,0.00,VWS V14.00,2013-02-27 01:36:00,
2013-02-26 17:41:00,47.1,39.9,30.28,South,177,0.0,0.0,76,0.00,,---,0.00,VWS V14.00,2013-02-27 01:41:00,
2013-02-26 17:46:00,46.9,39.4,30.28,South,177,0.0,0.0,75,0.00,,---,0.00,VWS V14.00,2013-02-27 01:46:00,
2013-02-26 17:51:00,46.7,38.9,30.28,South,177,0.0,0.0,74,0.00,,---,0.00,VWS V14.00,2013-02-27 01:51:00,
2013-02-26 17:56:00,46.5,38.7,30.27,South,177,0.0,0.0,74,0.00,,---,0.00,VWS V14.00,2013-02-27 01:56:00,
2013-02-26 18:01:00,46.2,38.4,30.28,South,177,0.0,0.0,74,0.00,,---,0.00,VWS V14.00,2013-02-27 02:01:00,
2013-02-26 18:06:00,46.0,38.5,30.28,South,177,0.0,0.0,75,0.00,,---,0.00,VWS V14.00,2013-02-27 02:06:00,
2013-02-26 18:11:00,45.8,38.3,30.28,South,177,0.0,1.0,75,0.00,,---,0.00,VWS V14.00,2013-02-27 02:11:00,
2013-02-26 18:16:00,45.7,37.9,30.27,South,177,0.0,1.0,74,0.00,,---,0.00,VWS V14.00,2013-02-27 02:16:00,
2013-02-26 18:21:00,45.7,38.6,30.27,South,177,0.0,1.0,76,0.00,,---,0.00,VWS V14.00,2013-02-27 02:21:00,
2013-02-26 18:27:00,45.5,38.7,30.27,South,177,0.0,1.0,77,0.00,,---,0.00,VWS V14.00,2013-02-27 02:27:00,
2013-02-26 18:32:00,45.4,38.3,30.27,South,177,0.0,1.0,76,0.00,,---,0.00,VWS V14.00,2013-02-27 02:32:00,
2013-02-26 18:37:00,45.3,38.5,30.27,South,177,0.0,0.0,77,0.00,,---,0.00,VWS V14.00,2013-02-27 02:37:00,
2013-02-26 18:42:00,45.2,39.1,30.27,South,177,0.0,0.0,79,0.00,,---,0.00,VWS V14.00,2013-02-27 02:42:00,
2013-02-26 18:47:00,45.1,39.0,30.28,South,177,0.0,0.0,79,0.00,,---,0.00,VWS V14.00,2013-02-27 02:47:00,
2013-02-26 18:52:00,45.1,39.0,30.28,South,177,0.0,0.0,79,0.00,,---,0.00,VWS V14.00,2013-02-27 02:52:00,
2013-02-26 18:57:00,45.0,39.5,30.28,South,177,0.0,0.0,81,0.00,,---,0.00,VWS V14.00,2013-02-27 02:57:00,
2013-02-26 19:02:00,44.9,39.4,30.28,South,177,0.0,0.0,81,0.00,,---,0.00,VWS V14.00,2013-02-27 03:02:00,
2013-02-26 19:07:00,44.7,38.9,30.27,South,177,0.0,0.0,80,0.00,,---,0.00,VWS V14.00,2013-02-27 03:07:00,
2013-02-26 19:12:00,44.6,39.1,30.27,South,177,0.0,0.0,81,0.00,,---,0.00,VWS V14.00,2013-02-27 03:12:00,
2013-02-26 19:17:00,44.6,39.5,30.27,South,177,0.0,0.0,82,0.00,,---,0.00,VWS V14.00,2013-02-27 03:17:00,
2013-02-26 19:22:00,44.4,38.9,30.27,SSE,149,0.0,0.0,81,0.00,,---,0.00,VWS V14.00,2013-02-27 03:22:00,
2013-02-26 19:27:00,44.2,38.4,30.27,SE,140,0.0,0.0,80,0.00,,---,0.00,VWS V14.00,2013-02-27 03:27:00,
2013-02-26 19:32:00,44.1,38.0,30.27,SSE,147,0.0,0.0,79,0.00,,---,0.00,VWS V14.00,2013-02-27 03:32:00,
2013-02-26 19:37:00,44.2,38.8,30.27,SSE,147,0.0,0.0,81,0.00,,---,0.00,VWS V14.00,2013-02-27 03:37:00,
2013-02-26 19:42:00,44.3,39.5,30.26,SSE,161,1.0,1.0,83,0.00,,---,0.00,VWS V14.00,2013-02-27 03:42:00,
2013-02-26 19:47:00,44.6,39.5,30.27,SSE,163,0.0,1.0,82,0.00,,---,0.00,VWS V14.00,2013-02-27 03:47:00,
2013-02-26 19:52:00,44.8,39.7,30.26,SSE,163,0.0,1.0,82,0.00,,---,0.00,VWS V14.00,2013-02-27 03:52:00,
2013-02-26 19:57:00,44.9,39.4,30.26,SSW,205,2.0,3.0,81,0.00,,---,0.00,VWS V14.00,2013-02-27 03:57:00,
2013-02-26 20:02:00,44.9,39.8,30.27,South,183,1.0,3.0,82,0.00,,---,0.00,VWS V14.00,2013-02-27 04:02:00,
2013-02-26 20:07:00,44.9,39.8,30.26,SSE,166,1.0,2.0,82,0.00,,---,0.00,VWS V14.00,2013-02-27 04:07:00,
2013-02-26 20:12:00,44.8,39.7,30.27,SSE,154,1.0,4.0,82,0.00,,---,0.00,VWS V14.00,2013-02-27 04:12:00,
2013-02-26 20:17:00,44.7,39.5,30.26,SSE,154,1.0,4.0,82,0.00,,---,0.00,VWS V14.00,2013-02-27 04:17:00,
2013-02-26 20:22:00,44.7,39.5,30.26,SSE,154,0.0,4.0,82,0.00,,---,0.00,VWS V14.00,2013-02-27 04:22:00,
2013-02-26 20:27:00,44.7,39.2,30.27,SSE,154,0.0,4.0,81,0.00,,---,0.00,VWS V14.00,2013-02-27 04:27:00,
2013-02-26 20:32:00,44.6,39.5,30.27,SSE,154,1.0,1.0,82,0.00,,---,0.00,VWS V14.00,2013-02-27 04:32:00,
2013-02-26 20:37:00,44.4,39.6,30.27,SSE,154,0.0,1.0,83,0.00,,---,0.00,VWS V14.00,2013-02-27 04:37:00,
2013-02-26 20:42:00,44.3,39.8,30.27,SSE,154,0.0,1.0,84,0.00,,---,0.00,VWS V14.00,2013-02-27 04:42:00,
2013-02-26 20:47:00,44.1,39.3,30.27,SSE,154,0.0,1.0,83,0.00,,---,0.00,VWS V14.00,2013-02-27 04:47:00,
2013-02-26 20:52:00,44.0,39.8,30.27,SSE,154,0.0,1.0,85,0.00,,---,0.00,VWS V14.00,2013-02-27 04:52:00,
2013-02-26 20:57:00,44.0,40.1,30.27,SSE,154,0.0,1.0,86,0.00,,---,0.00,VWS V14.00,2013-02-27 04:57:00,
2013-02-26 21:00:00,43.9,40.0,30.27,SSE,154,0.0,1.0,86,0.00,,---,0.00,VWS V14.00,2013-02-27 05:00:00,
2013-02-26 21:05:00,43.7,39.8,30.27,SSE,154,0.0,0.0,86,0.00,,---,0.00,VWS V14.00,2013-02-27 05:05:00,
2013-02-26 21:10:00,43.4,39.2,30.27,SSE,154,0.0,0.0,85,0.00,,---,0.00,VWS V14.00,2013-02-27 05:10:00,
2013-02-26 21:15:00,43.3,39.4,30.27,SSE,154,0.0,0.0,86,0.00,,---,0.00,VWS V14.00,2013-02-27 05:15:00,
2013-02-26 21:20:00,43.1,39.2,30.27,SSE,161,0.0,1.0,86,0.00,,---,0.00,VWS V14.00,2013-02-27 05:20:00,
2013-02-26 21:25:00,42.8,38.9,30.27,SSE,163,0.0,1.0,86,0.00,,---,0.00,VWS V14.00,2013-02-27 05:25:00,
2013-02-26 21:30:00,42.5,38.9,30.27,SSE,163,0.0,1.0,87,0.00,,---,0.00,VWS V14.00,2013-02-27 05:30:00,
2013-02-26 21:35:00,42.3,38.7,30.27,SSE,163,0.0,0.0,87,0.00,,---,0.00,VWS V14.00,2013-02-27 05:35:00,
2013-02-26 21:40:00,42.0,38.4,30.27,SSE,163,0.0,0.0,87,0.00,,---,0.00,VWS V14.00,2013-02-27 05:40:00,
2013-02-26 21:45:00,41.8,38.5,30.27,SSE,163,0.0,0.0,88,0.00,,---,0.00,VWS V14.00,2013-02-27 05:45:00,
2013-02-26 21:50:00,41.6,38.3,30.27,SSE,163,0.0,0.0,88,0.00,,---,0.00,VWS V14.00,2013-02-27 05:50:00,
2013-02-26 21:55:00,41.3,38.3,30.27,SSE,163,0.0,0.0,89,0.00,,---,0.00,VWS V14.00,2013-02-27 05:55:00,
2013-02-26 22:00:00,41.0,38.0,30.27,SSE,163,0.0,0.0,89,0.00,,---,0.00,VWS V14.00,2013-02-27 06:00:00,
2013-02-26 22:06:00,40.7,37.7,30.27,SSE,163,0.0,0.0,89,0.00,,---,0.00,VWS V14.00,2013-02-27 06:06:00,
2013-02-26 22:11:00,40.6,37.6,30.27,SSE,163,0.0,0.0,89,0.00,,---,0.00,VWS V14.00,2013-02-27 06:11:00,
2013-02-26 22:15:00,40.4,37.4,30.27,SSE,163,0.0,0.0,89,0.00,,---,0.00,VWS V14.00,2013-02-27 06:15:00,
2013-02-26 22:20:00,40.2,37.2,30.27,SSE,163,0.0,0.0,89,0.00,,---,0.00,VWS V14.00,2013-02-27 06:20:00,
2013-02-26 22:26:00,39.9,36.9,30.28,SSE,163,0.0,0.0,89,0.00,,---,0.00,VWS V14.00,2013-02-27 06:26:00,
2013-02-26 22:31:00,39.8,37.1,30.28,SSE,163,0.0,0.0,90,0.00,,---,0.00,VWS V14.00,2013-02-27 06:31:00,
2013-02-26 22:36:00,39.7,37.3,30.28,SSE,163,0.0,0.0,91,0.00,,---,0.00,VWS V14.00,2013-02-27 06:36:00,
2013-02-26 22:41:00,39.5,37.1,30.28,SSE,163,1.0,1.0,91,0.00,,---,0.00,VWS V14.00,2013-02-27 06:41:00,
2013-02-26 22:46:00,39.5,36.8,30.28,SSW,198,0.0,2.0,90,0.00,,---,0.00,VWS V14.00,2013-02-27 06:46:00,
2013-02-26 22:51:00,39.5,37.1,30.28,SSW,198,0.0,2.0,91,0.00,,---,0.00,VWS V14.00,2013-02-27 06:51:00,
2013-02-26 22:56:00,39.6,37.2,30.28,SSW,197,0.0,2.0,91,0.00,,---,0.00,VWS V14.00,2013-02-27 06:56:00,
2013-02-26 23:01:00,39.7,37.0,30.28,South,187,1.0,2.0,90,0.00,,---,0.00,VWS V14.00,2013-02-27 07:01:00,
2013-02-26 23:06:00,39.9,37.2,30.28,South,187,1.0,2.0,90,0.00,,---,0.00,VWS V14.00,2013-02-27 07:06:00,
2013-02-26 23:11:00,39.8,37.1,30.28,South,189,1.0,2.0,90,0.00,,---,0.00,VWS V14.00,2013-02-27 07:11:00,
2013-02-26 23:16:00,39.6,36.9,30.28,South,189,0.0,2.0,90,0.00,,---,0.00,VWS V14.00,2013-02-27 07:16:00,
2013-02-26 23:21:00,39.7,37.0,30.28,South,189,0.0,2.0,90,0.00,,---,0.00,VWS V14.00,2013-02-27 07:21:00,
2013-02-26 23:26:00,39.8,37.4,30.29,South,189,1.0,2.0,91,0.00,,---,0.00,VWS V14.00,2013-02-27 07:26:00,
2013-02-26 23:31:00,39.8,37.1,30.29,South,189,0.0,2.0,90,0.00,,---,0.00,VWS V14.00,2013-02-27 07:31:00,
2013-02-26 23:36:00,39.7,37.0,30.29,South,180,1.0,2.0,90,0.00,,---,0.00,VWS V14.00,2013-02-27 07:36:00,
2013-02-26 23:41:00,39.8,37.4,30.29,South,180,0.0,2.0,91,0.00,,---,0.00,VWS V14.00,2013-02-27 07:41:00,
2013-02-26 23:46:00,39.8,37.1,30.29,SSE,168,1.0,2.0,90,0.00,,---,0.00,VWS V14.00,2013-02-27 07:46:00,
2013-02-26 23:51:00,39.8,37.1,30.29,SSE,168,0.0,2.0,90,0.00,,---,0.00,VWS V14.00,2013-02-27 07:51:00,
2013-02-26 23:56:00,39.8,37.1,30.29,SSE,168,0.0,2.0,90,0.00,,---,0.00,VWS V14.00,2013-02-27 07:56:00,